DW2973 Weather Reports


time (UTC)temp
C
wind
direction
speed
KPH
gust
KPH
rain 1hr
cm
rain 24hr
cm
rain mn
cm
humidity
%
barometer
mb
20260901093017 18 248 0.0 0.0 0.00 0.00 0.05 86 1010.3
20260901091514 18 259 0.0 0.0 0.00 0.00 0.05 88 1010.1
20260901090010 17 275 0.0 0.0 0.00 0.00 0.05 89 1010.0
20260901084508 17 270 0.0 0.0 0.00 0.00 0.05 90 1009.9
20260901083004 17 299 0.0 0.0 0.00 0.00 0.05 91 1009.8
20260901081502 17 299 0.0 0.0 0.00 0.00 0.05 92 1009.7
20260901080112 17 234 0.0 0.0 0.00 0.00 0.05 93 1009.4
20260901074559 16 234 0.0 0.0 0.00 0.00 0.05 93 1009.2
20260901073057 16 234 0.0 0.0 0.00 0.00 0.05 93 1009.2
20260901071603 16 234 0.0 0.0 0.00 0.00 0.05 94 1009.0
20260901064607 16 234 0.0 0.0 0.00 0.00 0.05 94 1008.8
20260901063106 16 234 0.0 0.0 0.00 0.00 0.05 94 1008.6
20260901061547 15 234 0.0 0.0 0.00 0.00 0.05 94 1008.5
20260901060046 15 234 0.0 0.0 0.00 0.00 0.05 94 1008.4
20260901054546 15 224 0.0 0.0 0.00 0.00 0.05 95 1008.3
20260901053045 14 224 0.0 0.0 0.00 0.00 0.05 94 1008.3
20260901051551 14 220 0.0 0.0 0.00 0.00 0.05 94 1008.2
20260901050042 14 220 0.0 0.0 0.00 0.00 0.05 94 1008.1
20260901044541 14 220 0.0 0.0 0.00 0.00 0.05 94 1007.9
20260901043040 14 220 0.0 0.0 0.00 0.00 0.05 94 1007.9
20260901041538 14 219 0.0 0.0 0.00 0.00 0.05 94 1007.7
20260901040040 14 220 0.0 0.0 0.00 0.00 0.03 94 1007.7
20260901034536 14 219 0.0 0.0 0.00 0.00 0.03 94 1007.7
20260901033039 14 219 0.0 0.0 0.00 0.00 0.03 94 1007.5
20260901031543 14 219 0.0 0.0 0.00 0.00 0.03 94 1007.3
20260901030033 14 220 0.0 0.0 0.00 0.00 0.03 94 1007.3
20260901024532 14 220 0.0 0.0 0.00 0.00 0.03 93 1007.2
20260901023030 14 220 0.0 0.0 0.00 0.00 0.03 93 1007.1
20260901021544 14 220 0.0 0.0 0.00 0.00 0.03 93 1007.1
20260901020030 14 219 0.0 0.0 0.00 0.00 0.03 93 1007.0
20260901014528 14 220 0.0 0.0 0.00 0.00 0.03 93 1006.9
20260901013033 14 220 0.0 0.0 0.00 0.00 0.03 93 1006.9
20260901011526 14 219 0.0 0.0 0.00 0.00 0.03 93 1006.9
20260901010041 14 219 0.0 0.0 0.00 0.00 0.03 93 1006.8
20260901004525 14 220 0.0 0.0 0.00 0.00 0.03 93 1006.8
20260901003028 14 220 0.0 0.0 0.00 0.00 0.03 93 1006.8
20260901001523 14 220 0.0 0.0 0.00 0.00 0.03 92 1006.7
20260901000021 15 220 0.0 0.0 0.00 0.00 0.03 92 1006.6
20260831234521 15 229 0.0 0.0 0.00 0.00 0.03 92 1006.6
20260831233019 15 229 0.0 0.0 0.00 0.00 0.03 92 1006.6
20260831231519 15 221 0.0 0.0 0.00 0.00 0.00 92 1006.5
20260831230017 15 221 0.0 0.0 0.00 0.00 0.00 92 1006.7
20260831224515 15 221 0.0 0.0 0.00 0.00 0.00 92 1006.5
20260831223021 15 221 0.0 0.0 0.00 0.00 0.00 92 1006.6
20260831221515 15 221 1.6 0.0 0.00 0.00 0.00 92 1006.7
20260831220010 15 232 0.0 0.0 0.00 0.00 0.00 92 1006.7
20260831214509 15 232 0.0 0.0 0.00 0.00 0.13 92 1006.6
20260831213008 15 232 0.0 0.0 0.00 0.00 0.13 92 1006.5
20260831211510 15 234 0.0 0.0 0.00 0.00 0.13 92 1006.5
20260831210013 15 234 0.0 0.0 0.00 0.00 0.13 92 1006.4
20260831204509 15 234 0.0 0.0 0.00 0.00 0.13 92 1006.4
20260831203010 15 233 0.0 0.0 0.00 0.00 0.13 92 1006.3
20260831201506 15 233 0.0 0.0 0.00 0.00 0.13 91 1006.3
20260831200016 15 233 0.0 0.0 0.00 0.00 0.13 91 1006.3
20260831194507 15 234 0.0 0.0 0.00 0.00 0.13 91 1006.3
20260831193009 15 234 0.0 0.0 0.00 0.00 0.13 91 1006.4
20260831191506 15 234 0.0 0.0 0.00 0.00 0.13 90 1006.3
20260831190004 15 234 0.0 0.0 0.00 0.00 0.10 90 1006.0
20260831184505 15 233 0.0 0.0 0.00 0.00 0.10 89 1005.6
20260831183003 15 233 0.0 0.0 0.00 0.00 0.10 89 1005.6
20260831181504 16 233 0.0 0.0 0.00 0.00 0.10 88 1005.6
20260831180002 16 234 0.0 0.0 0.00 0.00 0.10 88 1005.6
20260831174502 16 234 0.0 0.0 0.00 0.00 0.10 88 1005.5
20260831173002 16 240 0.0 0.0 0.00 0.00 0.10 88 1005.4
20260831171502 16 240 0.0 0.0 0.00 0.00 0.10 88 1005.3
20260831170001 17 240 0.0 0.0 0.00 0.00 0.10 88 1005.4
20260831164501 17 240 0.0 0.0 0.00 0.00 0.10 88 1005.4
20260831163100 17 240 0.0 0.0 0.00 0.00 0.10 88 1005.5
20260831161559 17 240 0.0 0.0 0.00 0.00 0.10 88 1005.5
20260831160059 17 240 0.0 0.0 0.00 0.00 0.10 88 1005.4
20260831154559 17 240 0.0 0.0 0.00 0.00 0.10 86 1005.1
20260831153115 17 243 0.0 0.0 0.00 0.00 0.10 86 1005.1
20260831151602 17 230 0.0 0.0 0.00 0.00 0.08 84 1005.5
20260831150057 18 225 1.6 0.0 0.00 0.00 0.08 82 1005.4
20260831144640 19 223 1.6 0.0 0.00 0.00 0.08 80 1005.5
20260831143100 20 224 1.6 0.0 0.00 0.00 0.08 79 1005.5
20260831141555 20 211 3.2 0.0 0.00 0.00 0.08 80 1005.5
20260831140055 20 233 3.2 0.0 0.00 0.00 0.08 81 1005.4
20260831134555 20 223 1.6 0.0 0.00 0.00 0.08 82 1005.3
20260831133100 20 233 3.2 0.0 0.00 0.00 0.08 81 1005.2
20260831131601 20 234 3.2 0.0 0.00 0.00 0.08 82 1005.2
20260831130053 20 232 4.8 0.0 0.00 0.00 0.08 82 1005.2
20260831124558 20 202 6.4 0.0 0.00 0.00 0.08 86 1005.2
20260831123054 20 250 1.6 0.0 0.00 0.00 0.08 91 1005.1
20260831121548 19 172 0.0 0.0 0.00 0.00 0.08 92 1005.2
20260831120045 18 118 0.0 0.0 0.00 0.00 0.05 92 1005.2
20260831114552 18 179 0.0 0.0 0.00 0.00 0.05 92 1005.5
20260831113043 18 179 0.0 0.0 0.00 0.00 0.05 92 1005.6
20260831111551 18 128 0.0 0.0 0.00 0.00 0.05 93 1005.5
20260831110042 17 162 0.0 0.0 0.00 0.00 0.05 92 1005.4
20260831104545 16 161 0.0 0.0 0.00 0.00 0.05 92 1005.7
20260831103040 17 162 0.0 0.0 0.00 0.00 0.05 91 1005.6
20260831101540 18 157 0.0 0.0 0.00 0.00 0.05 92 1005.6
20260831100057 18 153 0.0 0.0 0.00 0.00 0.05 92 1005.8
20260831094538 18 227 0.0 0.0 0.00 0.00 0.05 93 1005.8